Overview Statistics Trail Chart Weather Telemetry Raw packets
 

This is the latest recevied weather packets stored in our database for station/object N7ZEF. If no packets are shown the sender has not sent any weather packets the latest 10 day(s).

<< 44 45 46 47 48 49 50 >>
Time Temp. Humidity Pressure Rain* Wind** Luminosity Snow
1777495650 10° C 37% 1021.5 hPa 0 mm - - -
1777495049 9.44° C 37% 1021.6 hPa 0 mm - - -
1777494447 10.56° C 38% 1021.6 hPa 0 mm - - -
1777493846 11.11° C 37% 1021.7 hPa 0 mm - - -
1777493244 11.67° C 23% 1021.7 hPa 0 mm - - -
1777492643 11.11° C 26% 1021.7 hPa 0 mm - - -
1777492042 10° C 28% 1021.7 hPa 0 mm - - -
1777491440 10.56° C 28% 1021.8 hPa 0 mm - - -
1777490839 11.11° C 26% 1022 hPa 0 mm - - -
1777490238 10.56° C 25% 1022.1 hPa 0 mm - - -
1777489636 10° C 29% 1022.2 hPa 0 mm - - -
1777489035 9.44° C 29% 1022.3 hPa 0 mm - - -
1777488434 9.44° C 32% 1022.5 hPa 0 mm - - -
1777487832 9.44° C 31% 1022.6 hPa 0 mm - - -
1777487231 8.33° C 36% 1022.6 hPa 0 mm - - -
1777486629 8.33° C 34% 1022.7 hPa 0 mm - - -
1777486028 7.78° C 34% 1022.7 hPa 0 mm - - -
1777485427 7.78° C 36% 1022.9 hPa 0 mm - - -
1777484825 7.78° C 37% 1023 hPa 0 mm - - -
1777484224 7.22° C 38% 1023.1 hPa 0 mm - - -
1777483623 7.78° C 39% 1023.1 hPa 0 mm - - -
1777483021 7.78° C 40% 1023.1 hPa 0 mm - - -
1777482420 7.78° C 40% 1023.1 hPa 0 mm - - -
1777481819 8.33° C 43% 1023.2 hPa 0 mm - - -
1777481217 7.78° C 43% 1023.4 hPa 0 mm - - -

* Rain latest hour (hover to see other rain measurements)
** Current wind speed in m/s (hover to see current wind gust speed)